{"data":{"norad_id":60492,"epoch":"2026-05-25T05:02:46.082976Z","epoch_age_seconds":57031,"freshness":"FRESH","line1":"1 60492U 24149AA  26145.21025559  .00015108  00000+0  39287-3 0  9994","line2":"2 60492  97.3772 228.4113 0002258  16.3768 343.7550 15.39018023 98722","mean_motion":15.39018023,"eccentricity":0.0002258,"inclination_deg":97.3772,"raan_deg":228.4113,"arg_perigee_deg":16.3768,"mean_anomaly_deg":343.755,"bstar":0.00039287,"rev_number":9872,"period_min":93.566155722661,"perigee_km":447.47026543925,"apogee_km":450.55340585343,"semimajor_km":6827.1488356463,"source":"CELESTRAK","updated_at":"2026-05-25T13:38:13.304175Z"}}